STARLINK-3743, 52118

Orbit data source: Space-Track

STARLINK-3743, 52118 is a payload satellite owned by SpaceX/Seattle (US) in LEO that was launched on Sat, 19 Mar 2022 UTC via an FALCON 9 launch vehicle from the Air Force Eastern Test Range (AFETR). Payload-class satellites include a variety of spacecraft equipped with specific instruments for various scientific and technological missions. These include communications satellites like Starlink; space stations such as the ISS; scientific satellites like the Hubble; Earth observation satellites from companies like Planet Labs, Umbra, and HawkEye 360; GPS; miniature CubeSats for education and research; and military/defense satellites.

Loading next visibility...
Identifier
52118, 2022-029AG
Orbit
LEO
Country
Flag of USUS
Related business
Manufacturer
SpaceX/Seattle
Mission
Operational Commercial Communications
Bus & Motor
STARLINK, Unknown motor
Mass
297 kg wet, ~275 kg dry
Launch date (UTC)
2022-03-19 (4 years ago)
Launch vehicle
FALCON 9
Launch site
Air Force Eastern Test Range (AFETR)
Object type
Payload
Rocket body
Debris
Shape & HBR
Box + 1 Pan, 10.1 m
Radar Cross Section
13.562 m², Large (>1 m²)

Expand to show TLE details & history
Last TLE update: 2 days ago

TLE from 2 days ago
0 STARLINK-3743
1 52118U 22029AG  26171.14373467  .00023250  00000-0  14670-2 0  9996
2 52118  53.1603 339.0712 0001247 118.6322 241.4795 15.09015817236256
Epoch: 2026-06-20T03:26Z
TLE epoch observation values (Epoch: 2026-06-20T03:26:58.675Z)
Latitude
-0.00002°
Longitude
18.96412°
Altitude
540.509 km
Speed
7.593 km/s
True Right ascension
22h 36m 17s
True Declination
0° 00' 00"
Sunlit
Object was in daylight at epoch
Visualization orbit readout
Latitude
Unknown
Longitude
Unknown
Altitude
Unknown
Speed
Unknown
Apparent Right ascension
Unknown
Apparent Declination
Unknown
Sunlit
N/A
Visualization observer readout
Local Sidereal Time
21:30:01
Azimuth
Unknown
Elevation
Unknown
Doppler factor
Unknown
Orbital elements
Apogee altitude
540.323 km
Perigee altitude
538.598 km
Semi-major axis
6,917.597 km
Eccentricity
0.00012
Inclination
53.1603°
RAAN
339.0712°
Arg. of periapsis
118.6322°
True anomaly
241.46695°
Mean anomaly
241.4795°
Eccentric anomaly
241.47322°
Mean motion
3.77234 °/min
Orbital period
95.43 mins
BSTAR
0.001467
Loading maneuver chart data...
Computing Atmospheric mass density...
Loading historical data...
Loading historical data...
Loading historical data...
Loading historical data...
Loading historical data...
Loading historical data...
Loading historical data...

Documentation

Showing up to 5 results
|